Location: Klinovec
(50.3970°N, 12.9600°E)
Time: 14:49:19
(UTC+01:00)

N. Korean satellite - Pass Details

Date: 17 November 2019
Orbit: 456 x 506 km, 97.2° (Epoch: 06 December)

Event Time Altitude Azimuth Distance (km) Brightness Sun altitude
Rises 17:02:26 0° 166° (SSE) 2,555 10.3 -6.8°
Reaches altitude 10° 17:04:29 10° 166° (SSE) 1,687 9.4 -7.1°
Maximum altitude 17:08:07 88° 253° (WSW) 506 6.7 -7.7°
Drops below altitude 10° 17:11:51 10° 347° (NNW) 1,724 9.3 -8.2°
Sets 17:13:57 0° 347° (NNW) 2,619 10.2 -8.5°
